Weather History for Coleman, TX

Change the Weather History Date:

Wednesday, March 6, 2013

  Actual Average (KABI) Record (KABI)
Temperature  
Mean Temperature 44 °F 54 °F  
Max Temperature 63 °F 65 °F 90 °F (1929)
Min Temperature 25 °F 42 °F 16 °F (1920)
Degree Days  
Heating Degree Days 21 12  
Month to date heating degree days 76  
Since 1 July heating degree days 2209  
Cooling Degree Days 0 1  
Month to date cooling degree days 1  
Year to date cooling degree days 6  
Moisture  
Dew Point 12 °F    
Average Humidity 30    
Maximum Humidity 58    
Minimum Humidity 13    
Precipitation  
Precipitation 0.00 in 0.06 in 0.70 in (1970)
Month to date precipitation 0.34  
Year to date precipitation 2.72  
Sea Level Pressure  
Sea Level Pressure 30.31 in    
Wind  
Wind Speed 5 mph (SSE)    
Max Wind Speed 14 mph    
Max Gust Speed 18 mph    
Visibility 10 miles    
Events      
T = Trace of Precipitation, MM = Missing Value Source: NWS Daily Summary

Daily Weather History Graph

Daily Weather History Graph

Search for Another Location

Airport:

Trip Planner

Search our weather history database for the weather conditions in past years. The results will help you decide how hot, cold, wet, or windy it might be!

Date:

Astronomy

Mar. 06, 2013 Rise Set
Actual Time 6:58 AM CST 6:39 PM CST
Civil Twilight 6:34 AM CST 7:03 PM CST
Nautical Twilight 6:05 AM CST 7:32 PM CST
Astronomical Twilight 5:37 AM CST 8:00 PM CST
Moon 2:54 AM CST (3/6) 1:37 PM CST (3/6)
Length of Visible Light 12h 29m
Length of Day
11h 40m
Waning Crescent, 29% of the Moon is Illuminated
Mar 6
Waning Crescent
Mar 11
New
Mar 19
First Quarter
Mar 27
Full
Apr 2
Last Quarter

Hourly Weather History & Observations

Time (CST) Temp. Windchill Dew Point Humidity Pressure Visibility Wind Dir Wind Speed Gust Speed Precip Events Conditions
12:15 AM 32.2 °F - 11.7 °F 43% 30.38 in 10.0 mi Calm Calm - N/A   Clear
12:35 AM 32.9 °F 27.5 °F 12.6 °F 43% 30.38 in 10.0 mi NNW 5.8 mph - N/A   Clear
12:55 AM 32.7 °F 29.6 °F 12.4 °F 43% 30.38 in 10.0 mi WNW 3.5 mph - N/A   Clear
1:15 AM 31.1 °F 26.4 °F 13.3 °F 48% 30.38 in 10.0 mi NW 4.6 mph - N/A   Clear
1:35 AM 31.6 °F - 12.9 °F 46% 30.38 in 10.0 mi Calm Calm - N/A   Clear
1:55 AM 31.8 °F - 12.7 °F 45% 30.38 in 10.0 mi Calm Calm - N/A   Clear
2:15 AM 32.4 °F - 12.2 °F 43% 30.37 in 10.0 mi Calm Calm - N/A   Clear
2:35 AM 30.2 °F - 14.5 °F 52% 30.37 in 10.0 mi Calm Calm - N/A   Clear
2:55 AM 30.6 °F 27.1 °F 13.1 °F 48% 30.37 in 10.0 mi NW 3.5 mph - N/A   Clear
3:15 AM 31.8 °F 28.5 °F 12.9 °F 46% 30.36 in 10.0 mi NNW 3.5 mph - N/A   Clear
3:35 AM 30.4 °F 26.9 °F 13.3 °F 49% 30.36 in 10.0 mi NW 3.5 mph - N/A   Clear
3:55 AM 30.2 °F 26.7 °F 13.6 °F 50% 30.37 in 10.0 mi NW 3.5 mph - N/A   Clear
4:15 AM 30.2 °F 25.4 °F 13.6 °F 50% 30.37 in 10.0 mi WNW 4.6 mph - N/A   Clear
4:35 AM 31.6 °F 27.0 °F 13.3 °F 47% 30.38 in 10.0 mi WNW 4.6 mph - N/A   Clear
4:55 AM 30.2 °F - 13.5 °F 50% 30.38 in 10.0 mi Calm Calm - N/A   Clear
5:15 AM 31.3 °F - 13.1 °F 47% 30.37 in 10.0 mi Calm Calm - N/A   Clear
5:35 AM 25.9 °F - 12.0 °F 56% 30.38 in 10.0 mi Calm Calm - N/A   Clear
6:15 AM 28.6 °F - 14.4 °F 55% 30.39 in 10.0 mi Calm Calm - N/A   Clear
6:35 AM 28.6 °F - 14.5 °F 56% 30.39 in 10.0 mi Calm Calm - N/A   Clear
6:55 AM 28.0 °F 24.2 °F 14.9 °F 58% 30.40 in 10.0 mi WNW 3.5 mph - N/A   Clear
7:15 AM 29.5 °F - 14.7 °F 54% 30.40 in 10.0 mi Calm Calm - N/A   Clear
7:35 AM 30.2 °F - 16.3 °F 56% 30.40 in 10.0 mi Calm Calm - N/A   Clear
7:55 AM 31.5 °F - 17.2 °F 56% 30.41 in 10.0 mi Calm Calm - N/A   Clear
8:15 AM 33.8 °F - 15.8 °F 48% 30.41 in 10.0 mi Calm Calm - N/A   Clear
8:35 AM 38.8 °F 36.5 °F 14.0 °F 36% 30.41 in 10.0 mi ESE 3.5 mph - N/A   Clear
8:55 AM 43.7 °F 38.6 °F 14.0 °F 30% 30.42 in 10.0 mi ESE 9.2 mph - N/A   Clear
9:15 AM 45.1 °F 40.3 °F 12.9 °F 27% 30.43 in 10.0 mi ESE 9.2 mph - N/A   Clear
9:35 AM 45.9 °F 41.7 °F 13.6 °F 27% 30.43 in 10.0 mi ESE 8.1 mph - N/A   Clear
9:55 AM 47.7 °F - 13.5 °F 25% 30.42 in 10.0 mi ESE 6.9 mph - N/A   Clear
10:15 AM 49.1 °F - 13.8 °F 24% 30.43 in 10.0 mi SE 3.5 mph - N/A   Clear
10:35 AM 50.9 °F - 13.1 °F 22% 30.42 in 10.0 mi SSE 9.2 mph - N/A   Clear
10:55 AM 50.4 °F - 11.8 °F 21% 30.41 in 10.0 mi ESE 10.4 mph - N/A   Clear
11:15 AM 52.9 °F - 12.9 °F 20% 30.40 in 10.0 mi SSE 9.2 mph 16.1 mph N/A   Clear
11:35 AM 54.0 °F - 10.8 °F 18% 30.39 in 10.0 mi ESE 10.4 mph 17.3 mph N/A   Clear
11:55 AM 54.7 °F - 10.8 °F 17% 30.38 in 10.0 mi ESE 10.4 mph 16.1 mph N/A   Clear
12:15 PM 56.1 °F - 10.8 °F 17% 30.37 in 10.0 mi SSE 10.4 mph 16.1 mph N/A   Clear
12:35 PM 56.1 °F - 9.0 °F 15% 30.35 in 10.0 mi SE 11.5 mph 16.1 mph N/A   Clear
12:55 PM 57.7 °F - 10.6 °F 15% 30.32 in 10.0 mi ESE 11.5 mph 18.4 mph N/A   Clear
1:15 PM 58.1 °F - 9.5 °F 15% 30.30 in 10.0 mi SE 12.7 mph 17.3 mph N/A   Clear
1:35 PM 60.3 °F - 10.2 °F 14% 30.27 in 10.0 mi SSE 13.8 mph 18.4 mph N/A   Clear
1:55 PM 59.0 °F - 9.3 °F 14% 30.27 in 10.0 mi SE 12.7 mph 18.4 mph N/A   Clear
2:15 PM 60.4 °F - 10.2 °F 14% 30.27 in 10.0 mi SSE 8.1 mph - N/A   Clear
2:35 PM 60.4 °F - 8.6 °F 13% 30.26 in 10.0 mi SSE 10.4 mph - N/A   Clear
2:55 PM 60.3 °F - 8.8 °F 13% 30.25 in 10.0 mi South 10.4 mph - N/A   Clear
3:15 PM 59.4 °F - 8.1 °F 13% 30.25 in 10.0 mi South 9.2 mph 16.1 mph N/A   Clear
3:35 PM 61.5 °F - 10.0 °F 13% 30.22 in 10.0 mi SE 10.4 mph 16.1 mph N/A   Clear
4:15 PM 61.0 °F - 10.2 °F 14% 30.20 in 10.0 mi SSE 11.5 mph 17.3 mph N/A   Clear
4:35 PM 62.8 °F - 10.4 °F 13% 30.20 in 10.0 mi SE 10.4 mph 17.3 mph N/A   Clear
4:55 PM 63.0 °F - 11.1 °F 13% 30.19 in 10.0 mi SE 10.4 mph - N/A   Clear
5:15 PM 62.4 °F - 11.3 °F 14% 30.19 in 10.0 mi SSE 11.5 mph - N/A   Clear
5:35 PM 61.7 °F - 10.9 °F 14% 30.19 in 10.0 mi SE 9.2 mph - N/A   Clear
5:55 PM 59.5 °F - 11.3 °F 15% 30.19 in 10.0 mi SE 6.9 mph - N/A   Clear
6:15 PM 58.6 °F - 10.4 °F 15% 30.19 in 10.0 mi SE 10.4 mph - N/A   Clear
6:35 PM 56.7 °F - 10.4 °F 16% 30.19 in 10.0 mi SSE 9.2 mph - N/A   Clear
6:55 PM 54.7 °F - 10.6 °F 17% 30.18 in 10.0 mi SSE 9.2 mph - N/A   Clear
7:15 PM 53.6 °F - 11.1 °F 18% 30.18 in 10.0 mi SE 8.1 mph - N/A   Clear
7:35 PM 51.3 °F - 12.6 °F 21% 30.18 in 10.0 mi SSE 5.8 mph - N/A   Clear
7:55 PM 49.5 °F - 12.6 °F 23% 30.18 in 10.0 mi SE 4.6 mph - N/A   Clear
8:35 PM 50.0 °F - 11.7 °F 21% 30.18 in 10.0 mi SSE 8.1 mph - N/A   Clear
8:55 PM 50.4 °F - 11.5 °F 21% 30.19 in 10.0 mi SSE 6.9 mph - N/A   Clear
9:15 PM 50.0 °F - 11.8 °F 22% 30.19 in 10.0 mi SSE 8.1 mph - N/A   Clear
9:35 PM 48.9 °F - 11.8 °F 23% 30.19 in 10.0 mi South 9.2 mph - N/A   Clear
9:55 PM 49.5 °F - 11.3 °F 22% 30.19 in 10.0 mi South 9.2 mph - N/A   Clear
10:15 PM 49.5 °F - 11.3 °F 22% 30.18 in 10.0 mi South 10.4 mph - N/A   Clear
10:35 PM 49.5 °F - 11.5 °F 22% 30.18 in 10.0 mi South 10.4 mph - N/A   Clear
10:55 PM 49.1 °F - 11.8 °F 22% 30.18 in 10.0 mi South 10.4 mph - N/A   Clear
11:15 PM 47.5 °F - 12.6 °F 25% 30.17 in 10.0 mi South 8.1 mph - N/A   Clear
11:35 PM 47.3 °F - 12.9 °F 25% 30.16 in 10.0 mi South 9.2 mph - N/A   Clear
11:55 PM 46.8 °F - 13.1 °F 26% 30.15 in 10.0 mi SSW 8.1 mph - N/A   Clear